Precipitable_Water
1.50 1.15 1.03 1.07 1.05 1.09 1.11 1.04 1.02 1.09 1.15 1.06 1.01 1.04 1.18 1.28 1.34 1.64 1.29 1.39 1.36 1.36 1.42 1.53 1.61 1.59 1.44 1.41 1.27 1.02 0.95 1.03 1.08 1.07 1.02 1.08 1.17 1.28 1.36 1.45 1.45 1.69 1.88 1.68
1.16 0.98 1.08 1.16 1.04 1.13 1.01 0.87 0.96 1.03 1.04 1.01 1.00 1.02 1.10 1.33 1.28 1.40 1.26 1.37 1.53 1.42 1.37 1.43 1.51 1.61 1.64 1.69 1.63 1.39 1.14 1.11 1.06 1.04 1.02 1.11 1.20 1.37 1.36 1.47 1.57 1.59 1.70 1.66
0.96 1.06 1.13 0.97 1.01 0.94 0.92 0.78 0.73 0.76 0.84 1.02 0.98 0.90 0.98 1.00 1.09 1.11 1.12 1.31 1.32 1.52 1.39 1.39 1.40 1.49 1.59 1.62 1.69 1.61 1.46 1.23 1.10 1.08 1.08 1.11 1.34 1.38 1.38 1.44 1.57 1.54 1.59 1.56
1.09 1.06 0.93 0.87 0.85 0.68 0.77 0.67 0.58 0.56 0.63 0.64 0.81 0.64 0.81 0.91 1.06 0.95 0.97 0.97 1.13 1.34 1.39 1.84 1.47 1.43 1.48 1.62 1.79 1.87 1.72 1.60 1.41 1.29 1.15 1.06 1.09 1.11 1.30 1.45 1.60 1.83 2.18 1.80
0.86 0.86 0.84 0.89 0.75 0.52 0.60 0.56 0.63 0.70 0.57 0.67 0.51 0.59 0.70 0.88 0.72 0.76 0.86 0.91 0.94 1.02 1.29 1.44 1.35 1.40 1.51 1.55 1.82 2.01 1.97 1.80 1.79 1.64 1.58 1.41 1.31 1.22 1.35 1.49 1.61 1.69 1.74 1.75
0.94 0.99 0.70 0.75 0.57 0.64 0.80 0.69 0.75 0.72 0.80 0.63 0.46 0.38 0.57 0.59 0.56 0.63 0.65 0.73 0.81 0.92 1.03 1.30 1.47 1.51 1.73 1.77 1.69 1.77 1.86 1.87 1.90 1.84 1.74 1.83 1.65 1.66 1.55 1.49 1.46 1.59 1.79 1.84
0.87 0.87 0.77 0.65 0.63 0.77 0.69 0.58 0.53 0.54 0.51 0.52 0.51 0.31 0.46 0.58 0.66 0.62 0.58 0.67 0.78 0.77 0.98 1.18 1.35 1.36 1.40 1.56 1.60 1.66 1.86 1.77 1.93 1.92 1.97 1.96 2.08 2.07 2.02 1.91 1.84 1.78 1.90 1.95
0.75 0.71 0.81 0.79 0.52 0.49 0.51 0.58 0.51 0.37 0.38 0.38 0.43 0.44 0.42 0.49 0.61 0.53 0.51 0.54 0.80 0.91 0.91 1.11 1.28 1.43 1.85 1.62 1.79 1.70 1.82 1.81 1.86 1.90 1.95 2.06 2.09 1.99 2.12 2.10 2.10 2.03 2.02 2.05
0.77 0.78 0.78 0.71 0.55 0.58 0.52 0.44 0.50 0.38 0.48 0.37 0.36 0.39 0.46 0.48 0.50 0.50 0.49 0.50 0.48 0.78 0.98 0.96 1.11 1.50 1.53 1.70 1.81 1.73 1.73 1.81 1.83 1.81 1.87 1.94 1.95 1.94 1.92 2.10 2.03 1.95 1.85 1.81
0.57 0.48 0.55 0.66 0.58 0.55 0.42 0.54 0.42 0.39 0.33 0.28 0.29 0.32 0.38 0.43 0.44 0.47 0.48 0.49 0.63 0.73 1.01 1.07 0.99 1.02 1.18 1.55 1.76 1.77 1.81 1.80 1.85 1.84 1.87 1.91 1.88 1.71 1.70 1.73 1.61 1.62 1.68 1.73
0.31 0.33 0.39 0.54 0.49 0.51 0.53 0.38 0.32 0.40 0.40 0.31 0.26 0.32 0.42 0.42 0.45 0.44 0.46 0.53 0.66 0.77 0.91 1.01 0.96 1.12 1.22 1.35 1.56 1.79 1.81 1.82 1.90 1.90 1.90 1.87 1.72 1.67 1.71 1.63 1.58 1.50 1.56 1.56
0.30 0.29 0.32 0.38 0.44 0.45 0.41 0.32 0.29 0.22 0.24 0.27 0.27 0.26 0.43 0.48 0.49 0.50 0.51 0.67 0.81 0.92 1.07 1.06 1.02 1.08 1.20 1.19 1.41 1.63 1.77 1.84 1.99 1.97 1.88 1.82 1.78 1.78 1.73 1.58 1.46 1.50 1.59 1.76
0.32 0.31 0.26 0.27 0.33 0.42 0.37 0.38 0.35 0.32 0.31 0.27 0.26 0.29 0.45 0.49 0.49 0.52 0.60 0.70 0.87 1.05 1.11 0.96 1.04 1.10 1.21 1.29 1.40 1.51 1.70 1.83 2.00 1.89 1.89 1.88 1.84 1.78 1.71 1.63 1.50 1.48 1.63 1.75
0.29 0.22 0.20 0.19 0.23 0.33 0.33 0.35 0.33 0.29 0.25 0.25 0.27 0.32 0.37 0.41 0.42 0.55 0.64 0.76 0.93 1.13 1.09 0.95 1.03 1.15 1.29 1.34 1.39 1.45 1.60 1.80 1.89 2.01 1.96 1.82 1.81 1.80 1.75 1.75 1.66 1.68 1.73 1.75
0.41 0.24 0.29 0.30 0.32 0.33 0.34 0.34 0.34 0.31 0.32 0.29 0.31 0.33 0.37 0.42 0.54 0.65 0.77 0.83 0.96 1.02 1.23 1.06 1.05 1.17 1.31 1.38 1.42 1.47 1.55 1.65 1.78 1.57 1.91 1.93 2.01 1.87 1.84 1.81 1.75 1.77 1.75 1.73
0.49 0.38 0.42 0.35 0.41 0.44 0.41 0.39 0.38 0.36 0.35 0.35 0.34 0.33 0.44 0.54 0.69 0.76 0.81 0.83 0.87 0.98 1.10 1.10 1.13 1.20 1.26 1.36 1.47 1.48 1.51 1.58 1.60 1.63 1.72 1.84 1.99 1.86 1.77 1.71 1.70 1.71 1.69 1.65
0.46 0.47 0.43 0.35 0.40 0.37 0.29 0.34 0.36 0.39 0.39 0.36 0.31 0.38 0.45 0.55 0.61 0.69 0.72 0.73 0.82 1.04 1.18 1.13 1.11 1.21 1.22 1.32 1.46 1.48 1.50 1.56 1.54 1.54 1.66 1.83 1.78 1.71 1.67 1.68 1.65 1.61 1.57 1.56
0.35 0.36 0.39 0.34 0.38 0.24 0.37 0.48 0.45 0.41 0.43 0.45 0.45 0.42 0.43 0.57 0.68 0.74 0.90 0.95 1.00 1.02 1.13 1.25 1.15 1.22 1.30 1.40 1.44 1.52 1.54 1.55 1.53 1.52 1.55 1.58 1.60 1.59 1.64 1.62 1.58 1.54 1.48 1.34
0.46 0.40 0.35 0.33 0.32 0.34 0.36 0.47 0.51 0.49 0.50 0.60 0.56 0.59 0.63 0.72 0.75 0.76 0.98 1.02 0.98 0.99 1.04 0.97 1.26 1.35 1.36 1.45 1.50 1.43 1.39 1.39 1.45 1.47 1.47 1.51 1.59 1.54 1.54 1.51 1.44 1.40 1.34 1.25
0.56 0.55 0.45 0.40 0.32 0.26 0.37 0.49 0.64 0.59 0.41 0.66 0.67 0.68 0.69 0.72 0.56 0.63 0.81 0.84 0.95 1.00 1.00 1.05 1.35 1.44 1.44 1.45 1.47 1.46 1.40 1.37 1.38 1.40 1.43 1.44 1.49 1.48 1.45 1.42 1.38 1.37 1.22 1.14
0.50 0.56 0.51 0.47 0.40 0.43 0.55 0.67 0.70 0.45 0.55 0.80 0.78 0.74 0.69 0.63 0.70 0.78 0.77 0.77 1.00 1.06 1.06 1.25 1.49 1.45 1.46 1.56 1.47 1.35 1.39 1.37 1.40 1.35 1.32 1.33 1.36 1.40 1.44 1.39 1.27 1.18 1.08 0.99
0.46 0.47 0.49 0.55 0.50 0.46 0.79 0.75 0.63 0.77 0.81 0.78 0.75 0.72 0.67 0.70 0.76 0.74 0.79 0.93 1.03 0.99 1.04 1.28 1.43 1.30 1.48 1.55 1.49 1.36 1.32 1.39 1.34 1.31 1.24 1.23 1.23 1.24 1.21 1.13 1.06 1.01 0.91 0.87
0.47 0.60 0.56 0.58 0.54 0.79 0.86 0.82 0.83 0.82 0.77 0.76 0.74 0.70 0.71 0.75 0.77 0.79 0.82 0.89 1.08 1.00 1.06 1.35 1.37 1.34 1.44 1.45 1.48 1.42 1.33 1.35 1.35 1.23 1.16 1.16 1.06 1.01 0.96 0.87 0.80 0.77 0.80 0.77
0.59 0.68 0.61 0.61 0.66 0.70 0.75 0.87 0.85 0.83 0.80 0.80 0.78 0.74 0.82 0.79 0.83 0.84 0.86 0.84 1.08 1.10 1.08 1.46 1.53 1.33 1.40 1.44 1.46 1.48 1.44 1.37 1.23 1.09 1.07 0.94 0.83 0.76 0.82 0.78 0.79 0.78 0.75 0.68
0.48 0.52 0.51 0.57 0.68 0.77 0.83 0.79 0.74 0.74 0.75 0.72 0.73 0.79 0.82 0.85 0.90 0.87 0.90 0.97 1.11 1.09 1.14 1.40 1.63 1.29 1.29 1.39 1.43 1.49 1.39 1.40 1.17 1.14 1.05 0.85 0.78 0.73 0.71 0.76 0.77 0.76 0.78 0.83
0.45 0.44 0.44 0.49 0.62 0.61 0.62 0.71 0.73 0.69 0.69 0.74 0.75 0.78 0.84 0.85 0.93 0.87 0.95 1.03 1.05 1.03 1.05 1.13 1.26 1.21 1.24 1.29 1.45 1.54 1.58 1.35 1.11 1.09 1.00 0.88 0.78 0.77 0.80 0.81 0.76 0.84 0.85 0.87
Wind_Speed
7 4 3 7 9 5 3 4 6 2 4 2 5 6 6 6 5 10 5 7 6 6 8 9 9 9 10 11 11 13 14 15 15 15 17 17 18 19 18 18 18 19 18 18
5 1 5 5 7 5 3 6 5 6 5 3 4 12 11 6 6 7 5 8 11 9 7 9 10 11 12 11 11 13 15 16 17 17 18 18 19 19 20 20 21 21 20 19
4 3 3 3 2 4 7 8 7 7 5 5 5 10 10 11 11 4 7 9 9 14 14 15 13 13 14 14 14 14 15 17 18 19 19 21 20 21 21 22 23 24 24 23
2 5 2 3 6 7 6 7 9 8 3 4 7 3 7 3 7 4 4 5 8 13 14 19 14 15 17 18 19 17 16 16 17 19 20 22 23 23 23 22 22 23 22 22
2 2 6 7 3 6 6 7 6 7 5 2 7 3 2 2 1 8 9 9 9 11 14 16 15 20 21 18 18 20 17 18 19 20 20 22 22 24 24 25 24 24 26 26
8 8 4 5 3 2 8 9 11 11 9 5 6 2 1 2 5 9 11 11 12 13 14 13 17 20 22 18 18 20 22 21 23 23 25 24 24 24 24 25 25 26 27 27
8 9 5 4 6 5 9 9 5 5 4 1 5 2 3 2 4 7 7 10 12 13 13 12 14 18 21 19 16 20 22 21 24 25 29 28 21 25 27 25 24 22 23 25
2 2 5 3 4 6 7 5 11 9 8 5 2 3 0 1 2 3 9 13 12 12 14 14 15 19 19 18 20 17 21 22 23 25 25 22 19 24 25 25 23 24 26 26
2 3 2 6 5 4 5 8 12 8 10 6 3 8 7 3 1 9 14 17 20 14 13 15 16 15 14 16 16 17 19 22 23 25 27 28 28 24 27 25 25 26 27 27
8 7 4 2 5 9 6 8 8 6 5 7 9 10 3 6 10 15 19 19 14 16 15 16 18 21 21 22 21 21 22 24 25 26 27 25 22 18 18 18 16 15 17 23
8 9 11 5 9 8 4 7 12 11 8 9 11 9 6 8 14 16 16 16 17 18 18 19 21 21 22 23 22 24 26 25 25 25 24 22 21 20 19 17 14 8 7 7
11 12 11 14 14 9 11 11 11 10 12 13 15 15 11 11 11 15 19 16 19 19 20 24 24 25 25 25 26 26 25 25 25 24 23 22 22 20 19 16 15 13 12 10
9 9 10 12 11 10 8 9 11 12 13 15 15 14 13 17 20 20 16 19 20 20 22 26 26 26 26 24 25 25 27 26 27 25 25 24 24 21 20 18 17 15 14 14
11 15 15 14 16 16 14 15 17 17 17 19 19 21 20 23 25 20 21 20 22 23 25 27 27 26 25 24 23 23 25 26 27 27 26 26 24 23 20 20 19 18 16 15
10 14 15 17 18 19 20 21 20 21 20 21 22 23 23 22 17 17 19 22 24 26 27 28 28 27 26 23 22 21 22 24 24 28 29 20 21 21 21 20 19 19 18 17
13 15 16 19 20 21 22 22 22 22 23 23 23 22 16 17 18 21 24 27 28 28 27 27 27 26 24 21 20 20 20 21 22 21 21 21 21 20 19 19 18 19 20 20
18 17 19 21 21 22 22 21 21 19 14 16 18 19 19 20 23 24 27 29 26 26 25 25 26 24 21 19 17 16 15 17 18 17 17 16 17 17 17 16 18 19 19 17
21 19 19 21 21 23 22 19 17 19 19 18 17 20 21 21 21 24 24 24 25 26 27 26 24 20 18 15 13 11 11 11 12 13 13 15 17 17 18 18 18 16 14 13
20 20 20 21 22 26 24 21 15 15 17 21 20 20 21 21 23 22 22 24 27 28 27 26 19 17 15 13 11 12 12 12 12 13 14 14 17 19 18 17 15 14 13 12
16 15 19 21 24 26 22 23 16 17 21 16 17 19 21 24 24 23 27 30 31 30 26 22 15 15 14 13 11 11 11 11 10 11 11 11 11 12 13 14 14 12 12 12
19 19 21 21 25 26 24 14 17 20 17 18 20 22 24 25 25 27 29 29 26 23 23 18 13 14 14 12 12 12 11 11 10 9 8 8 8 9 10 11 11 12 12 12
26 24 24 23 25 27 18 19 20 18 20 23 24 27 28 27 26 27 27 25 24 22 21 15 14 14 13 12 11 11 11 11 10 9 9 9 9 9 10 11 12 12 12 12
25 24 25 26 26 21 20 21 23 25 25 26 27 28 27 26 26 26 26 26 22 22 21 18 15 14 11 10 10 11 10 10 10 9 9 10 10 10 10 11 11 12 12 12
27 25 27 29 30 31 30 29 29 28 28 28 28 28 26 26 26 26 27 25 22 22 21 18 15 12 10 9 10 11 11 11 10 10 10 10 11 11 11 11 12 13 13 13
29 28 29 30 28 30 31 30 25 27 29 29 30 28 27 27 25 25 25 22 19 20 18 16 13 11 10 10 11 12 13 12 11 11 11 11 11 12 12 13 14 14 15 15
30 29 28 29 28 29 29 29 30 31 31 30 30 29 28 27 26 26 23 20 19 18 18 17 14 12 11 12 13 13 13 13 13 12 12 12 13 13 13 14 14 16 18 17
Wind_Direction
333 320 218 275 313 356 79 19 340 234 250 247 263 306 327 229 236 246 193 216 223 226 223 218 223 220 220 227 230 231 231 231 227 227 227 228 229 230 233 235 236 235 240 242
318 279 253 261 275 353 54 63 316 298 141 231 3 9 359 324 256 250 236 237 239 231 238 226 224 230 232 233 236 237 235 233 232 234 233 233 233 235 237 239 237 239 245 248
149 248 237 307 335 350 354 333 340 345 313 352 330 8 18 331 328 348 317 248 255 242 250 229 224 239 244 240 240 241 238 237 236 237 238 237 240 241 242 244 244 244 248 249
231 271 259 295 332 326 326 309 314 322 358 343 292 318 329 243 277 354 324 325 288 266 262 262 245 241 249 248 243 243 242 239 241 240 241 242 242 244 244 246 248 244 246 249
315 273 281 323 325 318 338 353 334 311 299 351 346 91 340 195 152 34 23 0 333 311 272 257 259 253 251 250 252 235 251 247 246 244 245 244 246 247 248 247 248 249 251 256
263 274 286 318 331 304 319 299 303 301 275 332 43 11 182 98 23 359 347 346 337 329 304 282 259 264 260 254 259 250 249 253 249 250 248 248 247 249 248 248 250 253 255 256
298 261 204 321 299 331 311 323 8 347 57 350 11 10 80 79 4 347 347 347 342 331 320 303 265 266 263 249 277 262 250 255 253 251 254 237 247 257 249 251 251 255 257 259
55 201 227 183 326 332 326 353 345 333 343 321 312 14 163 57 8 346 356 344 336 340 329 323 302 285 267 246 263 253 255 260 256 256 256 272 271 258 258 255 252 263 266 266
202 255 233 263 309 302 326 307 344 313 304 305 14 3 32 338 325 353 338 335 328 323 326 314 312 309 292 280 270 271 264 264 262 258 259 266 271 267 269 252 268 271 267 263
305 311 299 190 292 280 257 323 326 336 309 316 327 322 51 346 327 321 320 324 332 323 318 315 305 298 295 293 284 274 268 266 265 263 262 264 257 264 258 264 277 286 275 261
287 285 290 245 284 277 229 293 306 293 286 300 296 312 342 320 318 316 321 323 324 321 320 314 311 303 294 286 282 278 269 265 261 258 256 253 250 254 256 272 276 279 286 272
288 295 289 292 289 272 282 296 298 295 299 299 303 301 314 322 322 326 323 325 322 318 316 314 307 300 296 285 280 276 269 260 256 253 251 249 246 248 250 257 259 265 274 275
297 285 296 300 287 253 272 281 293 294 297 292 295 295 292 311 317 318 320 320 319 318 316 315 308 302 296 291 282 275 267 265 252 250 248 245 244 246 245 254 251 263 277 269
277 272 276 278 284 294 291 290 289 293 291 294 292 299 307 311 310 310 311 314 315 313 315 313 308 302 298 291 284 276 268 264 259 249 243 242 241 244 246 252 254 260 269 268
278 272 275 276 282 285 289 290 290 288 285 285 294 296 304 314 320 322 319 317 316 317 311 314 309 303 299 291 282 275 269 264 263 261 246 239 242 242 246 250 252 257 262 266
273 276 275 276 279 281 284 287 283 286 284 286 292 294 309 317 316 315 313 312 312 312 311 314 309 304 300 292 283 276 271 265 266 265 261 252 245 250 248 251 254 259 262 266
280 281 284 283 289 289 284 284 283 291 294 301 302 307 312 308 310 311 312 310 312 315 314 314 311 307 301 293 284 280 273 268 264 263 261 242 238 245 248 249 260 263 266 260
275 273 276 279 281 276 284 288 288 283 286 286 294 302 303 308 310 314 316 320 317 318 317 311 311 308 303 296 286 275 275 271 265 257 257 254 251 246 251 259 260 255 253 248
270 272 274 278 278 283 280 285 289 292 289 298 300 303 304 309 309 313 317 316 315 314 312 313 302 304 300 291 285 277 270 267 262 261 260 264 260 246 254 254 242 242 241 236
269 278 277 276 279 283 289 296 283 288 288 294 299 299 302 305 304 304 313 312 313 310 311 310 300 302 295 283 276 274 268 262 260 261 262 256 254 253 242 234 240 234 231 235
269 270 273 277 276 281 287 279 284 281 286 291 296 300 303 303 303 307 310 310 313 313 311 305 293 296 292 273 267 265 261 256 255 253 243 244 249 239 230 228 227 228 233 236
276 278 272 274 274 278 292 282 284 286 285 288 294 298 299 299 301 305 308 310 310 309 306 293 287 292 284 263 257 253 255 247 240 240 243 245 246 240 234 230 231 234 235 237
276 276 276 274 276 280 285 284 282 283 287 289 292 294 294 294 297 302 306 307 301 302 298 284 284 287 274 257 248 252 240 234 230 238 245 246 244 244 233 236 233 232 235 242
280 280 276 277 276 277 276 281 285 289 288 289 291 293 291 292 294 300 304 300 296 298 296 287 267 272 263 251 247 244 237 227 232 241 250 249 245 242 238 238 236 239 242 248
278 280 279 280 281 280 279 280 283 285 285 286 287 287 286 288 290 297 301 300 294 295 293 287 258 265 260 254 249 245 236 229 237 245 249 248 246 242 241 243 243 245 250 253
277 278 278 278 283 283 284 284 285 285 285 286 286 285 283 286 287 293 293 291 287 287 288 281 269 259 261 256 249 245 237 235 241 246 249 250 249 243 245 246 248 252 255 259